Regional Weather Roundup
Issued by NWS Northern Indiana

Home | Current Version | Previous Version | Graphics & Text | Print | Product List | Glossary Off
Versions: 1 2 3 4 5 6 7 8 9 10 11 12 13 14 15 16 17 18 19 20 21 22 23 24 25 26 27 28 29 30 31 32 33 34 35 36 37 38 39 40 41 42 43 44 45 46 47 48 49 50

000
ASUS43 KIWX 282310
RWRIWX

KIWX WEATHER ROUNDUP
NATIONAL WEATHER SERVICE NORTHERN INDIANA
600 PM EST SUN DEC 28 2014

NOTE: "FAIR" INDICATES FEW OR NO CLOUDS BELOW 12,000 FEET WITH NO
SIGNIFICANT WEATHER AND/OR OBSTRUCTIONS TO VISIBILITY.

* THESE STATIONS ARE NOT UNDER NWS QUALITY CONTROL. THEY ALSO MAY NOT
  REPORT WEATHER SUCH AS PRECIPITATION OR FOG.

INZ001>027-290000-
NORTHERN INDIANA

CITY           SKY/WX    TMP DP  RH WIND       PRES   REMARKS
GARY*          PTCLDY    32  14  47 VRB7      30.19S WCI  26
VALPARAISO     CLEAR     28  19  69 SW6       30.19S WCI  22
MICHIGAN CITY* CLEAR     30  12  47 CALM      30.19S
LAPORTE*       PTCLDY    31  20  64 W3        30.18S
KNOX*          CLEAR     29  21  71 W3        30.18S
SOUTH BEND     CLEAR     28  17  63 NW7       30.18S WCI  21
ELKHART*       CLEAR     30  18  59 CALM      30.18
GOSHEN         CLEAR     30  24  78 SW8       30.17S WCI  22
MONTICELLO*    CLEAR     28  25  89 CALM      30.19F
LOGANSPORT*    PTCLDY    27  23  86 W6        30.21S WCI  20
ROCHESTER*     CLEAR     32  28  86 SW3       30.19S
WARSAW*        CLEAR     28  25  86 W5        30.17S WCI  23
ANGOLA*        CLEAR     30  25  80 CALM      30.14S
FORT WAYNE     PTCLDY    31  26  82 W6        30.18S WCI  25
HUNTINGTON*    PTCLDY    29  23  78 W5        30.18S WCI  24
PERU/GRISSOM   PTCLDY    27  27 100 W5        30.19R WCI  22
MARION*        CLOUDY    30  24  79 NW6       30.20R WCI  24

$$
INZ028>050-290000-
CENTRAL INDIANA

CITY           SKY/WX    TMP DP  RH WIND       PRES   REMARKS
LAFAYETTE      CLEAR     27  22  81 CALM      30.21S
KOKOMO*        MOCLDY    28  23  80 NW5       30.20R WCI  23
MUNCIE*        CLOUDY    31  26  82 NW7       30.18R WCI  24
INDIANAPOLIS   CLOUDY    29  23  78 N5        30.19S WCI  24

$$
MIZ043>046-050>051-056>058-064>065-071>073-077>080-290000-
SOUTHWEST LOWER MICHIGAN

CITY           SKY/WX    TMP DP  RH WIND       PRES   REMARKS
BATTLE CREEK   CLEAR     29  20  69 W7        30.15R WCI  22
BENTON HARBOR  CLEAR     27  20  75 W3        30.18S
COLDWATER*     CLEAR     29  22  73 NW5       30.15R WCI  24
HILLSDALE*     PTCLDY    31  23  74 W6        30.13R WCI  25
HOLLAND        PTCLDY    32  22  66 W7        30.17R WCI  26
GRAND RAPIDS   PTCLDY    30  20  66 W12       30.15S WCI  20
KALAMAZOO      PTCLDY    30  20  66 W8        30.16R WCI  22
STURGIS*       CLEAR     30  21  69 NW3       30.15S
THREE RIVERS*  FAIR      29  21  71 NW5       30.17S WCI  24

$$
OHZ001>008-015>018-024>025-290000-
NORTHWEST OHIO

CITY           SKY/WX    TMP DP  RH WIND       PRES   REMARKS
WAUSEON*       FAIR      30  27  86 W7        30.16R WCI  23
DEFIANCE       PTCLDY    33  25  72 CALM      30.18R
FINDLAY        CLOUDY    33  27  78 W7        30.15R WCI  27
TOLEDO EXPRESS MOCLDY    31  24  75 W6        30.16R WCI  25
TOLEDO METCALF CLOUDY    32  24  72 W7        30.17R WCI  26
LIMA           CLOUDY    35  27  72 W8        30.15R WCI  29

$$
AND FOR LAKE MICHIGAN COASTAL AND OPEN LAKE BUOY OBSERVATIONS

STATION/POSITION TEMP    WIND        PRES    VSBY  WAVE
                 AIR SEA DIR/SP/G                  HT/PER
                 (F)     (DEG/KT/KT) (MB)    (MI)  (FT/S)
CALUMET HARBOR    32     210/  5/  7 1020.8F
MICHIGAN CITY     32     230/  8/  9   N/A
SAINT JOSEPH      32     260/  6/  9 1022.7S

$$
&&



USA.gov is the U.S. government's official web portal to all federal, state and local government web resources and services.